www.pogodaiklimat.ru
ПОГОДА в Санта-Роза-де-Конларе

Архив погоды в Санта-Роза-де-Конларе (Аргентина)

Время
(UTC), дата
10 6.04
11 6.04
12 6.04
13 6.04
14 6.04
15 6.04
16 6.04
17 6.04
18 6.04
19 6.04
20 6.04
21 6.04
22 6.04
23 6.04
00 7.04
09 7.04
10 7.04
11 7.04
12 7.04
13 7.04
14 7.04
15 7.04
16 7.04
17 7.04
18 7.04
19 7.04
20 7.04
21 7.04
22 7.04
23 7.04
00 8.04
09 8.04
10 8.04
11 8.04
12 8.04
13 8.04
14 8.04
15 8.04
16 8.04
17 8.04
18 8.04
19 8.04
20 8.04
21 8.04
22 8.04
23 8.04
00 9.04
09 9.04
10 9.04
11 9.04
12 9.04
13 9.04
14 9.04
15 9.04
16 9.04
17 9.04
18 9.04
19 9.04
20 9.04
21 9.04
22 9.04
23 9.04
00 10.04
09 10.04
10 10.04
11 10.04
12 10.04
13 10.04
14 10.04
15 10.04
16 10.04
17 10.04
18 10.04
19 10.04
20 10.04
21 10.04
22 10.04
23 10.04
00 11.04
09 11.04
10 11.04
11 11.04
12 11.04
13 11.04
14 11.04
15 11.04
16 11.04
17 11.04
18 11.04
19 11.04
20 11.04
21 11.04
22 11.04
23 11.04
00 12.04
09 12.04
11 12.04
12 12.04
13 12.04
14 12.04
15 12.04
16 12.04
17 12.04
18 12.04
19 12.04
20 12.04
21 12.04
22 12.04
23 12.04
00 13.04
Ветер
(напр.,м/с)
Видим. Явления Облачность Т
(С)
Тd
(С)
f
(%)
Тe
(С)
Тes
(С)
Комфортность P
(гПа)
Po
(гПа)
Тmin
(С)
Tmax
(С)
R
(мм)
R24
(мм)
S
(см)
штиль 0 20 км 8/8 1050 м
[Sc]
+15.7 +12.6 82 +16 +16 1010.9 941.5
Ю 2 20 км 9/9 1050 м
[Sc]
+16.3 +12.2 77 +16 +16 1011.5 941.7
штиль 0 20 км 9/9 1050 м
[Sc]
+17.5 +13.2 76 +17 +18 1011.8 942.0 +13.5 +20.6
штиль 0 20 км 9/9 1050 м
[Sc]
+20.4 +12.5 60 +22 +23 комфорт 1010.5 941.6
штиль 0 20 км 6/6 1050 м
[Sc]
+21.8 +12.6 56 +24 +29 комфорт 1009.9 941.4
СЗ 4 20 км 4/4 1050 м
[Sc]
+24.4 +15.0 56 +27 +32 жарко 1008.9 941.1
С 3 20 км 4/4 1050 м
[Cu hum]
+24.8 +15.5 56 +28 +34 жарко 1008.5 940.8
СЗ 4 20 км 4/4 1050 м
[Cu med, cong]
+27.1 +17.9 57 +32 +36 очень душно 1006.7 939.7
З 4 20 км 4/4 1050 м
[Cu med, cong]
+28.3 +18.8 56 +33 +37 очень душно 1005.8 939.2
штиль 0 20 км 6/6 1050 м
[Cb calv]
+27.9 +18.6 57 +33 +37 очень душно 1005.5 938.8
Ю 4 8000 м гроза, ливневой дождь 9/1 1000 м
[Cb cap As op]
+23.0 +19.7 82 +30 +30 очень душно 1007.2 939.4
З 3 9000 м гроза, ливневой дождь 9/1 1000 м
[Cb cap As op]
+19.4 +17.1 87 +22 +22 комфорт 1009.9 940.1
З 2 20 км гроза без осадков {дождь} 6/6 1000 м
[Cb cap]
+19.1 +17.3 89 +21 +21 комфорт 1009.4 939.6
штиль 0 20 км гроза без осадков 6/6 1000 м
[Cb cap]
+18.0 +16.4 90 +18 +18 1011.0 940.6
штиль 0 20 км гроза без осадков {дождь} 6/6 1000 м
[Cb cap]
+17.3 +15.6 90 +17 +17 1011.8 941.4 +17.3 +28.5 9
штиль 0 20 км 9/9 900 м
[St]
+18.1 +17.3 95 +18 +18 1013.3 943.4
В 2 20 км 9/9 900 м
[St]
+17.2 +16.4 95 +17 +17 1013.8 943.9
штиль 0 20 км мгла ясно +15.2 +14.3 94 +15 +15 1014.3 944.0
штиль 0 20 км мгла 3/3 600 м
[St]
+16.4 +15.7 96 +16 +18 1015.0 944.6 +15.2 +18.3 9
Ю 2 700 м 3/3 1050 м
[Sc]
+18.9 +18.4 97 +21 +24 комфорт 1013.5 944.3
Ю 2 20 км 3/3 1050 м
[Sc]
+22.1 +18.3 79 +27 +33 душно 1012.6 944.1
штиль 0 20 км ясно +24.4 +18.7 71 +29 +44 душно 1011.7 943.8
ЮЗ 2 20 км ясно +25.9 +18.2 63 +31 +43 очень душно 1010.7 943.2
СЗ 3 20 км ясно +28.7 +15.6 45 +32 +42 душно 1008.9 942.0
СЗ 4 20 км ясно +29.7 +14.3 39 +32 +38 душно 1007.7 941.1
З 2 20 км ясно +30.6 +14.3 37 +32 +39 жарко 1007.0 940.6
СЗ 2 20 км ясно +30.6 +14.3 37 +32 +36 жарко 1006.3 940.0
С 4 20 км ясно +29.7 +14.3 39 +32 +32 душно 1008.1 939.7
СЗ 3 20 км ясно +26.2 +16.4 55 +30 +30 душно 1008.9 939.9
С 2 20 км ясно +23.6 +15.9 62 +27 +27 жарко 1010.2 940.3
СЗ 3 20 км ясно +22.1 +16.0 68 +26 +26 душно 1010.7 940.9 +16.4 +30.7
штиль 0 <100 м туман, небо не видно ?/? +12.6 +11.7 94 +12 +12 1009.9 940.1
штиль 0 <100 м туман, небо не видно ?/? +12.4 +12.0 97 +12 +12 1009.5 940.2
штиль 0 <100 м туман, небо не видно ?/? +14.2 +13.8 97 +14 +14 1010.2 940.4
штиль 0 <100 м туман, небо не видно ?/? +15.6 +15.1 97 +15 +15 1010.3 940.5 +11.5 +22.1
штиль 0 5000 м в посл. час туман туман ясно +16.2 +15.5 96 +16 +22 1010.3 940.6
штиль 0 20 км 3/3 750 м
[Cu hum]
+17.4 +15.1 86 +17 +25 1009.6 940.2
штиль 0 20 км 1/1 900 м
[Cu hum]
+21.3 +15.6 70 +25 +38 комфорт 1008.4 940.0
СЗ 4 20 км ясно +24.8 +10.6 41 +26 +34 жарко 1006.7 939.0
СЗ 6 20 км ясно +25.7 +11.8 42 +27 +32 жарко 1005.9 938.5
СЗ 5 20 км {туман} ясно +26.4 +12.3 42 +28 +33 жарко 1004.8 937.6
СЗ 5 20 км ясно +27.1 +12.4 40 +29 +32 жарко 1004.1 937.1
СЗ 4 20 км ясно +27.1 +12.4 40 +29 +31 жарко 1003.7 936.8
СЗ 3 20 км ясно +26.4 +12.3 42 +28 +29 жарко 1005.8 936.5
штиль 0 20 км ясно +23.9 +11.7 46 +25 +25 комфорт 1005.9 936.6
штиль 0 20 км ясно +20.0 +14.5 71 +22 +22 комфорт 1007.1 937.3
штиль 0 20 км ясно +18.8 +13.3 70 +20 +20 1008.1 938.2 +15.6 +27.4
Ю 2 20 км ясно +9.8 +8.9 94 +8 +8 1013.1 943.3
Ю 2 20 км ясно +10.6 +9.6 94 +9 +9 1014.2 943.8
Ю 2 20 км ясно +10.7 +9.7 94 +9 +9 1015.2 944.5
Ю 2 20 км ясно +11.8 +10.8 94 +11 +12 1016.2 945.4 +9.1 +18.8
С 2 20 км ясно +16.0 +13.8 87 +16 +20 945.9
Ю 2 20 км ясно +19.3 +14.5 74 +21 +29 комфорт 1015.3 945.9
С 2 20 км 6/3 1050 м
[Cu hum Ac As]
+22.1 +15.2 65 +26 +31 душно 1014.1 945.4
Ю 2 20 км 6/3 1050 м
[Cu hum Ac As]
+23.3 +15.4 61 +28 +34 душно 1013.1 944.8
С 2 20 км 6/3 1050 м
[Cu hum Ac As]
+24.7 +15.3 56 +28 +34 душно 1011.7 943.8
С 2 20 км 4/4 1200 м
[Sc]
+25.8 +14.6 50 +28 +34 жарко 1010.2 942.6
С 2 20 км 3/0
[Ac As]
+28.1 +14.0 42 +30 +36 жарко 1008.6 941.6
Ю 4 20 км 3/0
[Ac As]
+28.5 +13.6 40 +30 +32 жарко 941.1
Ю 6 20 км 3/0
[Ac As]
+26.6 +12.6 42 +28 +29 жарко 1010.6 940.7
Ю 4 20 км ясно +23.6 +12.8 51 +26 +26 жарко 1011.3 940.9
Ю 5 20 км ясно +21.1 +12.2 57 +23 +23 комфорт 1012.2 941.4
Ю 3 20 км ясно +19.4 +11.5 60 +21 +21 комфорт 1012.9 942.1 +11.8 +28.5
Ю 3 20 км 10/10 1050 м
[Sc]
+15.1 +12.0 82 +15 +15 1013.4 944.1
Ю 3 20 км 10/10 1050 м
[Sc]
+15.1 +12.2 83 +14 +14 1014.2 944.4
Ю 2 20 км 10/10 1200 м
[Sc]
+14.9 +11.7 81 +15 +15 1015.1 945.3
Ю 4 20 км 10/6 1200 м
[Sc Ac As]
+14.9 +11.2 79 +14 +14 1016.2 945.8 +14.2 +19.5
Ю 5 20 км 10/5 1200 м
[Sc Ac As]
+14.9 +11.3 79 +14 +14 1017.2 946.6
Ю 6 20 км 10/5 1200 м
[Sc Ac As]
+15.6 +11.4 76 +14 +15 1017.3 946.8
Ю 3 20 км 10/5 1200 м
[Sc Ac As]
+17.2 +11.7 70 +17 +18 1016.6 946.6
Ю 2 20 км 10/5 1200 м
[Sc Ac As]
+17.6 +11.4 67 +18 +20 1016.2 946.3
З 3 20 км 10/6 1200 м
[Sc Ac As]
+17.4 +11.2 67 +18 +19 1016.1 946.1
З 4 20 км 10/8 1050 м
[Sc Ac As]
+17.4 +11.0 66 +17 +18 1015.7 945.8
штиль 0 8000 м слаб. дождь 10/8 750 м
[Sc As op]
+14.3 +12.0 86 +14 +14 1016.8 946.1
штиль 0 9000 м слаб. дождь 10/8 900 м
[Sc As op]
+13.9 +12.3 90 +13 +14 1016.8 946.0
штиль 0 20 км в посл. час дождь 10/8 1050 м
[Sc Ac As]
+14.2 +12.7 91 +14 +14 1017.0 946.2
Ю 3 20 км 10/6 900 м
[Sc Ac As]
+12.4 +10.0 85 +11 +11 1017.6 946.3
Ю 3 20 км 10/10 900 м
[Sc]
+11.8 +9.2 84 +10 +10 1019.1 947.3
штиль 0 20 км 10/10 900 м
[Sc]
+11.4 +9.0 85 +11 +11 1019.8 947.9 +11.1 +18.0 2
штиль 0 9000 м слаб. морось 10/10 660 м
[Frnb]
+9.2 +7.9 92 +8 +8 1019.5 948.7
штиль 0 9000 м слаб. морось 10/10 660 м
[Frnb]
+9.2 +7.9 92 +8 +8 1021.1 948.7
штиль 0 20 км в посл. час морось 10/10 900 м
[St]
+9.4 +7.7 89 +9 +9 1021.4 949.0
штиль 0 20 км {морось} 10/10 900 м
[St]
+9.8 +8.1 89 +9 +9 1021.6 949.3 +7.7 +11.4 2
штиль 0 20 км 10/10 750 м
[Sc]
+11.1 +9.1 87 +10 +10 1021.5 949.6
штиль 0 20 км 10/10 750 м
[Sc]
+11.8 +9.9 88 +11 +11 1021.0 949.3
штиль 0 20 км 10/10 750 м
[Sc]
+12.8 +9.3 79 +12 +12 1020.4 949.0
штиль 0 20 км 10/10 750 м
[Sc]
+13.6 +8.5 71 +13 +13 1019.8 948.6
штиль 0 20 км ясно +13.9 +9.1 73 +14 +29 опасность простуды 1019.0 948.0
штиль 0 20 км 10/10 750 м
[Sc]
+14.7 +10.0 73 +14 +14 1018.1 947.3
штиль 0 20 км 10/10 750 м
[Sc]
+14.7 +11.6 82 +14 +14 1017.8 947.1
штиль 0 20 км 10/10 750 м
[Sc]
+15.1 +11.8 81 +15 +15 1017.5 946.9
штиль 0 20 км 10/10 750 м
[Sc]
+15.1 +11.8 81 +15 +15 1019.0 947.1
штиль 0 20 км 10/10 750 м
[Sc]
+14.7 +11.6 82 +14 +14 1019.2 946.9
штиль 0 20 км 10/10 750 м
[Sc]
+14.4 +11.8 84 +14 +14 1019.6 947.3
штиль 0 20 км 10/10 750 м
[Sc]
+14.2 +12.4 89 +14 +14 1019.8 948.0 +9.8 +15.3
С 2 9000 м слаб. морось 10/10 540 м
[Frnb]
+12.9 +11.8 93 +12 +12 1018.0 946.7
СЗ 2 9000 м слаб. морось 10/10 540 м
[Frnb]
+12.4 +11.8 96 +11 +11 1019.0 947.1
штиль 0 9000 м слаб. морось 10/10 540 м
[Frnb]
+12.7 +12.3 97 +12 +12 1019.1 947.3 +12.0 +14.2 4
штиль 0 9000 м слаб. морось 10/10 540 м
[Frnb]
+12.9 +12.3 96 +12 +12 1018.5 947.3
Ю 2 20 км в посл. час морось 10/10 600 м
[Frnb]
+13.8 +13.0 95 +13 +13 1017.4 946.5
Ю 2 20 км 10/10 750 м
[Sc]
+14.6 +13.2 91 +14 +14 1017.4 946.7
ЮВ 2 20 км 10/10 750 м
[Sc]
+14.9 +13.5 91 +15 +15 1016.8 946.3
ЮВ 2 20 км 10/10 750 м
[Sc]
+15.3 +13.7 90 +15 +15 1015.4 945.1
ЮВ 2 20 км {морось} 10/10 750 м
[Sc]
+16.1 +13.8 86 +16 +16 1014.4 944.3 1
ЮВ 2 20 км 10/10 900 м
[Sc]
+16.7 +14.1 85 +17 +17 1013.8 943.9
Ю 2 20 км 10/10 900 м
[Sc]
+17.4 +14.4 83 +18 +18 1012.6 943.0
Ю 2 20 км 10/10 750 м
[Sc]
+17.4 +14.4 83 +18 +18 1013.7 942.9
Ю 2 20 км 10/10 750 м
[Sc]
+16.7 +14.1 85 +17 +17 1013.7 942.9
СЗ 2 20 км 10/10 750 м
[Sc]
+16.1 +13.8 86 +16 +16 1014.3 943.5
СЗ 3 20 км 10/10 750 м
[Sc]
+16.1 +14.6 91 +16 +16 1014.7 944.0 +12.4 +17.6
Местоположение метеостанции Санта-Роза-де-Конлара (Аргентина): широта -32.38 долгота -65.18 высота над уровнем моря 615 м.
В архиве по умолчанию представлена погода в Санта-Роза-де-Конларе за последнюю неделю. Архивные данные за месяц целиком и за предыдущие месяцы, начиная с января 2011 года, Вы можете получить, выбрав интересующий диапазон дат из раскрывающегося списка и нажав кнопку "Найти!".
*Определитесь, кто Вы:
Внимание! Время в таблицах - всемирное. Для получения местного времени необходимо прибавить поправку, которая равна -3 ч.
Некоторые строки с данными для отдельных станций могут быть выделены курсивом. Это означает, что фактические данные отсутствуют по различным причинам, а приведенные значения являются расчетными модельными данными для данного пункта наблюдений.
Смотрите также архив погоды в соседних городах и на ближайших метеорологических станциях:
Партнеры нашего сайта:      
Пояснения к столбцам:
  • Ветер - указаны скорость ветра в м/с - средняя за 10 мин, порывы в срок и между сроками (в фигурных скобках) и направление, откуда дует ветер: С - северный,
  • СВ - северо-восточный, В - восточный, ЮВ - юго-восточный, Ю - южный, ЮЗ - юго-западный, З - западный, СЗ - северо-западный.
  • Видимость - горизонтальная дальность видимости в метрах или километрах. При видимости от 1 до 10 км при отсутствии осадков обычно наблюдается дымка, при ухудшении видимости до 1 км и менее - туман. В сухую погоду видимость может ухудшаться дымом, пылью или мглою.
  • Явления - указаны атмосферные явления, наблюдавшиеся в срок или в последний час перед сроком; фигурными скобками обозначены явления, наблюдавшиеся между сроками (за 1-3 часа до срока); квадратными скобками обозначены град или гололедные отложения с указанием их диаметра в мм.
  • Облачность - указаны через наклонную черту общая и нижняя облачность в баллах и высота нижней границы облаков в метрах; квадратными скобками обозначены формы облаков: Ci - перистые, Cs - перисто-слоистые, Cc - перисто-кучевые, Ac - высококучевые, As - высокослоистые, Sc - слоисто-кучевые, Ns - слоисто-дождевые, Cu - кучевые, Cb - кучево-дождевые. Подробнее классификацию облаков см. в Атласе облаков (PDF).
  • T - Температура воздуха - температура, измеренная на высоте 2 м над землей.
  • Td - Температура точки росы - температура, при понижении до которой содержащийся в воздухе водяной пар достигнет насыщения.
  • f - Относительная влажность воздуха - влажноcть воздуха, измеренная на высоте 2 м над землей.
  • Te - Эффективная температура - температура, которую ощущает одетый по сезону человек в тени. Характеристика душности погоды. При расчете учитывается влияние влажности воздуха и скорости ветра на теплоощущения человека.
  • Tes - Эффективная температура на солнце - температура, которую ощущает человек, с поправкой на солнечный нагрев. Характеристика знойности погоды. Зависит от высоты солнца над горизонтом, облачности и скорости ветра. Ночью, в пасмурную погоду, а также при ветре 12 м/с и более поправка равна нулю.
  • P - Атмосферное давление - приведенное к уровню моря атмосферное давление.
  • Po - Атмосферное давление - измеренное на уровне метеостанции атмосферное давление.
  • Tmin - Минимальная температура - минимум температуры воздуха на высоте 2 м над землей.
  • Tmax - Максимальная температура - максимум температуры воздуха на высоте 2 м над землей.
  • R - Количество осадков - Количество выпавших осадков за период времени, мм. При наведении курсора мыши на число - период времени, за который выпало указанное количество осадков.
  • R24 - Количество осадков - Количество выпавших осадков за 24 часа, мм.
  • S - Снежный покров - Высота снежного покрова, см. При наведении курсора мыши на число - состояние снежного покрова и степень покрытия местности в баллах.